STARLINK-32151 (60299 NORAD) Tracking and Keplerian Element Data

This shows tracking and keplerian element data for the satellite.

Feedback or suggestion? Click here.




ElementValue
Catalog60299
NameSTARLINK-32151
Epoch Orbit1298
Epoch Day286.3680773
Epoch Year2024
RAAN275.6896
Inclination53.1602
Eccentricity0.0001192
Argument of Perigee87.3902
Mean Anonmoly272.7238
Mean Motion15.37239705
Decay Rate0.0002139
L11 60299U 24132X 24286.36807730 .00021390 00000+0 58682-3 0 9990
L22 60299 53.1602 275.6896 0001192 87.3902 272.7238 15.37239705 12983



Live tracking and technical data element details for STARLINK-32151 (NORAD 60299). STARLINK-32151 can be tracked NOW for your location showing map with azimuth and elevation plus other details from your city location.







IsCatalogInMostPopularTable: catalog: 60299, numindb: 10
Update: records affected: 1



GetName: 60299 STARLINK-32151

Hit Count: updated at: Thu, 23 Jan 2025 15:11:08 GMT